Eagle River, WI

11:39 PM CST on January 16, 2018 (GMT -0600)
Eagle River Union

Weather History for KEGV - August, 2013

Change the Weather History Date:

Monday, August 26, 2013

  Actual Average Record
Temperature  
Mean Temperature 74 °F -  
Max Temperature 83 °F 75 °F 87 °F (1993)
Min Temperature 65 °F 56 °F 39 °F (2008)
Cooling Degree Days 9    
Growing Degree Days 24 (Base 50)    
Moisture  
Dew Point 68 °F    
Average Humidity 84    
Maximum Humidity 100    
Minimum Humidity 60    
Precipitation  
Precipitation 0.84 in - - ()
Sea Level Pressure  
Sea Level Pressure 30.01 in    
Wind  
Wind Speed 7 mph (WSW)    
Max Wind Speed 17 mph    
Max Gust Speed 24 mph    
Visibility 9 miles    
Events Rain    
Averages and records for this station are not official NWS values.
T = Trace of Precipitation, MM = Missing Value Source: NWS Daily Summary

Daily Weather History Graph

Daily Weather History Graph

Search for Another Location

Airport or City:

Trip Planner

Search our weather history database for the weather conditions in past years. The results will help you decide how hot, cold, wet, or windy it might be!

Date:

Astronomy

Aug. 26, 2013 Rise Set
Actual Time 6:10 AM CDT 7:45 PM CDT
Civil Twilight 5:39 AM CDT 8:17 PM CDT
Nautical Twilight 5:01 AM CDT 8:55 PM CDT
Astronomical Twilight 4:19 AM CDT 9:36 PM CDT
Moon 10:33 PM CDT (8/26) 12:34 PM CDT (8/26)
Length of Visible Light 14h 37m
Length of Day
13h 35m
Waning Gibbous, 66% of the Moon is Illuminated
Aug 26
Waning Gibbous
Aug 28
Last Quarter
Sep 5
New
Sep 12
First Quarter
Sep 19
Full

Hourly Weather History & Observations

Time (CDT) Temp. Heat Index Dew Point Humidity Pressure Visibility Wind Dir Wind Speed Gust Speed Precip Events Conditions
12:15 AM 78.1 °F - 68.9 °F 73% 30.03 in 10.0 mi WSW 12.7 mph 20.7 mph N/A   Scattered Clouds
12:35 AM 77.9 °F - 68.9 °F 74% 30.02 in 10.0 mi SW 11.5 mph 16.1 mph N/A   Scattered Clouds
12:55 AM 77.5 °F - 68.9 °F 75% 30.02 in 10.0 mi WSW 11.5 mph 17.3 mph N/A   Scattered Clouds
1:15 AM 77.9 °F - 68.5 °F 73% 30.02 in 10.0 mi WSW 11.5 mph - N/A   Overcast
1:35 AM 77.4 °F - 68.5 °F 74% 30.01 in 10.0 mi WNW 15.0 mph 20.7 mph N/A   Mostly Cloudy
1:55 AM 74.5 °F - 61.5 °F 64% 30.02 in 10.0 mi North 10.4 mph 19.6 mph N/A   Overcast
2:15 AM 73.0 °F - 61.9 °F 68% 30.03 in 10.0 mi NNW 3.5 mph - N/A   Overcast
2:35 AM 72.5 °F - 62.2 °F 70% 30.02 in 10.0 mi Calm Calm - N/A   Overcast
2:55 AM 72.5 °F - 62.6 °F 71% 30.02 in 10.0 mi Calm Calm - N/A   Overcast
3:15 AM 72.0 °F - 62.6 °F 72% 30.06 in 10.0 mi NNW 17.3 mph 24.2 mph N/A   Overcast
3:35 AM 66.7 °F - 65.5 °F 96% 30.07 in 1.5 mi North 9.2 mph 20.7 mph 0.38 in Rain Heavy Rain
3:55 AM 65.7 °F - 65.3 °F 99% 30.04 in 4.0 mi SSE 3.5 mph - 0.54 in Rain Heavy Rain
4:15 AM 65.7 °F - 65.7 °F 100% 30.04 in 10.0 mi SSW 4.6 mph - 0.01 in Rain Light Rain
4:35 AM 65.7 °F - 65.7 °F 100% 30.05 in 7.0 mi South 5.8 mph - 0.05 in Rain Heavy Rain
4:55 AM 65.7 °F - 65.7 °F 100% 30.02 in 7.0 mi South 9.2 mph 16.1 mph 0.12 in Rain Rain
5:15 AM 65.8 °F - 65.7 °F 99% 30.03 in 10.0 mi SSW 6.9 mph - 0.01 in Rain Light Rain
5:35 AM 65.7 °F - 65.5 °F 99% 29.94 in 10.0 mi South 16.1 mph 23.0 mph 0.02 in Rain Rain
5:55 AM 66.2 °F - 65.5 °F 98% 30.03 in 10.0 mi NW 11.5 mph 17.3 mph 0.02 in Rain Light Rain
6:15 AM 66.2 °F - 65.3 °F 97% 30.03 in 10.0 mi SW 4.6 mph - 0.01 in   Scattered Clouds
6:35 AM 66.2 °F - 65.5 °F 98% 30.04 in 10.0 mi SW 4.6 mph - 0.01 in   Clear
6:55 AM 65.8 °F - 65.5 °F 99% 30.04 in 10.0 mi Calm Calm - 0.01 in   Clear
7:15 AM 65.8 °F - 65.5 °F 99% 30.04 in 10.0 mi Calm Calm - N/A   Clear
7:35 AM 66.2 °F - 66.0 °F 99% 30.04 in 10.0 mi Calm Calm - N/A   Clear
7:55 AM 66.6 °F - 66.4 °F 99% 30.04 in 10.0 mi SW 5.8 mph - N/A   Scattered Clouds
8:15 AM 67.1 °F - 66.6 °F 98% 30.05 in 10.0 mi SW 5.8 mph - N/A   Scattered Clouds
8:35 AM 67.3 °F - 67.1 °F 99% 30.04 in 10.0 mi SW 5.8 mph - N/A   Mostly Cloudy
8:55 AM 68.0 °F - 67.1 °F 97% 30.05 in 10.0 mi SW 9.2 mph - N/A   Overcast
9:15 AM 68.0 °F - 67.3 °F 98% 30.05 in 10.0 mi SW 9.2 mph - N/A   Overcast
9:35 AM 68.0 °F - 67.3 °F 98% 30.05 in 10.0 mi SW 9.2 mph - N/A   Overcast
9:55 AM 68.2 °F - 67.6 °F 98% 30.04 in 10.0 mi WSW 10.4 mph - N/A   Overcast
10:15 AM 69.1 °F - 68.2 °F 97% 30.05 in 10.0 mi WSW 8.1 mph - N/A   Overcast
10:35 AM 70.5 °F - 68.9 °F 95% 30.04 in 10.0 mi West 8.1 mph - N/A   Overcast
10:55 AM 71.1 °F - 69.1 °F 93% 30.04 in 10.0 mi WSW 9.2 mph - N/A   Overcast
11:15 AM 71.6 °F - 69.1 °F 92% 30.04 in 10.0 mi WSW 6.9 mph - N/A   Overcast
11:35 AM 72.0 °F - 69.4 °F 92% 30.04 in 10.0 mi West 9.2 mph - N/A   Mostly Cloudy
11:55 AM 73.6 °F - 69.4 °F 87% 30.03 in 10.0 mi West 6.9 mph - N/A   Scattered Clouds
12:15 PM 77.5 °F - 70.0 °F 77% 30.02 in 10.0 mi WSW 9.2 mph - N/A   Clear
12:35 PM 79.3 °F - 70.3 °F 74% 30.02 in 10.0 mi West 11.5 mph - N/A   Scattered Clouds
12:55 PM 80.2 °F 83.7 °F 70.7 °F 73% 30.02 in 10.0 mi West 11.5 mph - N/A   Mostly Cloudy
1:15 PM 80.6 °F 83.8 °F 69.6 °F 69% 30.02 in 10.0 mi West 6.9 mph 17.3 mph N/A   Overcast
1:35 PM 81.1 °F 84.7 °F 70.2 °F 69% 30.01 in 10.0 mi WNW 9.2 mph - N/A   Overcast
1:55 PM 81.5 °F 84.9 °F 69.6 °F 67% 30.01 in 10.0 mi WNW 8.1 mph - N/A   Overcast
2:15 PM 82.4 °F 85.6 °F 68.7 °F 63% 30.01 in 10.0 mi West 8.1 mph - N/A   Mostly Cloudy
2:35 PM 82.9 °F 86.5 °F 69.3 °F 63% 30.01 in 10.0 mi West 4.6 mph - N/A   Mostly Cloudy
2:55 PM 83.1 °F 86.6 °F 68.9 °F 62% 30.01 in 10.0 mi WNW 6.9 mph - N/A   Scattered Clouds
3:15 PM 82.9 °F 85.8 °F 67.6 °F 60% 30.01 in 10.0 mi West 4.6 mph - N/A   Mostly Cloudy
3:35 PM 82.4 °F 85.4 °F 68.4 °F 62% 30.01 in 10.0 mi WSW 5.8 mph - N/A   Overcast
3:55 PM 83.1 °F 86.3 °F 68.4 °F 61% 30.00 in 10.0 mi NW 4.6 mph - N/A   Overcast
4:15 PM 82.9 °F 86.0 °F 68.4 °F 61% 29.99 in 10.0 mi NW 4.6 mph - N/A   Overcast
4:35 PM 83.3 °F 86.4 °F 68.0 °F 60% 29.99 in 10.0 mi WSW 4.6 mph - N/A   Overcast
4:55 PM 82.8 °F 86.2 °F 68.9 °F 63% 30.00 in 10.0 mi WSW 3.5 mph - N/A   Overcast
5:15 PM 82.4 °F 86.1 °F 69.4 °F 65% 30.00 in 10.0 mi Calm Calm - N/A   Overcast
5:35 PM 81.9 °F 85.2 °F 69.3 °F 65% 30.00 in 10.0 mi West 5.8 mph - N/A   Overcast
5:55 PM 82.8 °F 86.0 °F 68.5 °F 62% 29.99 in 10.0 mi West 3.5 mph - N/A   Mostly Cloudy
6:15 PM 81.5 °F 84.8 °F 69.3 °F 66% 29.98 in 10.0 mi Calm Calm - N/A   Mostly Cloudy
6:35 PM 81.3 °F 84.8 °F 69.8 °F 68% 29.97 in 10.0 mi Calm Calm - N/A   Scattered Clouds
6:55 PM 78.8 °F - 70.3 °F 75% 29.97 in 10.0 mi Calm Calm - N/A   Clear
7:15 PM 77.7 °F - 70.7 °F 79% 29.97 in 10.0 mi Calm Calm - N/A   Clear
7:35 PM 76.6 °F - 71.8 °F 85% 29.97 in 2.5 mi Calm Calm - N/A   Haze
7:55 PM 75.6 °F - 73.4 °F 93% 29.97 in 10.0 mi Calm Calm - N/A   Scattered Clouds
8:15 PM 76.6 °F - 70.2 °F 80% 29.98 in 10.0 mi Calm Calm - N/A   Scattered Clouds
8:35 PM 76.6 °F - 70.0 °F 80% 29.97 in 10.0 mi Calm Calm - N/A   Clear
8:55 PM 74.1 °F - 72.9 °F 96% 29.99 in 10.0 mi Calm Calm - N/A   Clear
9:15 PM 73.6 °F - 72.9 °F 98% 29.99 in 7.0 mi Calm Calm - N/A   Mostly Cloudy
9:35 PM 74.8 °F - 73.2 °F 95% 29.97 in 10.0 mi Calm Calm - N/A   Scattered Clouds
9:55 PM 73.9 °F - 72.7 °F 96% 29.99 in 7.0 mi Calm Calm - N/A Rain Light Rain
10:15 PM 73.9 °F - 73.6 °F 99% 29.97 in 5.0 mi Calm Calm - N/A Rain Light Rain
10:35 PM 73.2 °F - 73.2 °F 100% 29.97 in 2.5 mi Calm Calm - N/A Rain Rain
10:55 PM 73.4 °F - 73.4 °F 100% 30.01 in 3.0 mi West 10.4 mph - 0.02 in Rain Heavy Rain
11:15 PM 70.7 °F - 70.0 °F 98% 30.03 in 5.0 mi North 5.8 mph - 0.09 in Rain Rain
11:35 PM 70.3 °F - 69.1 °F 96% 30.01 in 7.0 mi Calm Calm - 0.11 in Rain Rain
11:55 PM 69.4 °F - 68.9 °F 98% 29.99 in 10.0 mi East 3.5 mph - 0.13 in Rain Rain